Current weather by "City, St" or "zip code"  
 

Current Conditions: Natchitoches, Natchitoches Regional Airport, LA

Overcast


56.0 F

Last Updated on Jan 22 2019, 9:55 am CST
Humidity: 82%
Wind Speed: E 10.4 G 16.1 mph
Barometer 30.05 in
Dewpoint: 50.9 F
Visibility: 10.00 mi
Precip: --
Heat Index: NA
Wind Chill: 53 F
Current conditions at:

Natchitoches, Natchitoches Regional Airport, LA (KIER)

Lat: 31.73 Lon: 93.099

Local Radar Image active severe weather and emergency alerts image image weather storm and storm spotter reports image weather observation monitoring service image
Local
Radar
Active
Alerts
Storm Reports Obs
Monitoring

iAlert Weather and Emergency Alert Notification Services:


ialert severe weather and emergency alerts by text message and email ialert daily weather forecast by email and text message service ialert real-time weather-observation monitoring and alert notification service ialert storm report monitoring alert notification

Observation History for Natchitoches, Natchitoches Regional Airport, LA


Time Wind
(mph)
Vis
(mi)
Weather Precip (in) Temperature (F) Relative
Humidity
Wind
Chill
(°F)
Heat
Index
(°F)
Pressure
Air Dwpt altimeter
(in)
sea level
(mb)
9:55 am CST E 10.4 G 16.1 10.00 Overcast -- 56.0 50.9 82% 53 NA 30.05 M
8:55 am CST SE 8.1 10.00 Overcast -- 53.0 48.6 84% 50 NA 30.07 M
7:55 am CST SE 9.2 10.00 Overcast -- 51.0 47.1 87% 48 NA 30.06 M
6:55 am CST SE 9.2 10.00 Overcast -- 49.0 45.7 87% 45 NA 30.06 M
5:55 am CST SE 8.1 10.00 Overcast -- 49.0 44.8 87% 46 NA 30.05 M
4:55 am CST SE 8.1 10.00 Overcast -- 48.0 44.1 85% 44 NA 30.06 M
3:55 am CST SE 5.8 10.00 Overcast -- 48.0 43.9 85% 45 NA 30.09 M
2:55 am CST SE 9.2 10.00 Overcast -- 49.0 44.1 82% 45 NA 30.09 M
1:55 am CST SE 10.4 10.00 Overcast -- 49.0 43.9 81% 45 NA 30.10 M
12:55 am CST SE 9.2 10.00 Overcast -- 48.0 43.0 82% 44 NA 30.11 M
11:55 pm CST SE 9.2 10.00 Overcast -- 49.0 42.6 78% 45 NA 30.12 M
10:55 pm CST SE 9.2 10.00 Overcast -- 49.0 42.1 77% 45 NA 30.13 M
9:55 pm CST SE 9.2 G 18.4 10.00 Overcast -- 51.0 41.9 71% 48 NA 30.14 M
8:55 pm CST SE 11.5 G 16.1 10.00 Overcast -- 50.0 42.3 74% 46 NA 30.16 M
7:55 pm CST SE 9.2 10.00 Overcast -- 50.0 41.9 73% 46 NA 30.17 M
6:55 pm CST SE 6.9 10.00 Mostly Cloudy -- 50.0 40.6 71% 47 NA 30.18 M
5:55 pm CST SE 8.1 10.00 Mostly Cloudy -- 51.0 39.2 64% 48 NA 30.18 M
4:55 pm CST SE 10.4 10.00 Partly Cloudy -- 53.0 37.0 54% 50 NA 30.20 M
3:55 pm CST S 13.8 10.00 Fair -- 55.0 33.6 44% 51 NA 30.21 M
2:55 pm CST SE 11.5 10.00 Fair -- 55.0 35.1 48% 52 NA 30.22 M
1:55 pm CST SE 8.1 G 16.1 10.00 Fair -- 53.0 33.6 49% 50 NA 30.24 M
12:55 pm CST SE 11.5 10.00 Fair -- 50.0 32.5 51% 46 NA 30.27 M
11:55 am CST SE 10.4 10.00 Fair -- 48.0 32.5 55% 43 NA 30.33 M
10:55 am CST SE 13.8 10.00 Fair -- 44.0 31.6 61% 37 NA 30.35 M

Regional Weather Observation


Ft. Polk - Peason Ridge, LA (KAQV)

Overcast
59.0 F

Barksdale Air Force Base, LA (KBAD)

Overcast
56.0 F

Shreveport, Shreveport Regional Airport, LA (KSHV)

Overcast
57.0 F

Ft. Polk/Self Strip, LA (KDNK)

Light Rain
66.0 F

Minden Airport, LA (KMNE)

Overcast
56.0 F

Fort Polk, Polk AAF Ft Polk, LA (KPOE)

Overcast
58.0 F

Advertise Here


Advertise Here